GW3178 Weather Reports


time (UTC)temp
C
wind
direction
speed
KPH
gust
KPH
rain 1hr
cm
rain 24hr
cm
rain mn
cm
humidity
%
barometer
mb
20260506002814 20 180 0.0 0.0 0.00 0.00 0.00 62 1007.7
20260506002311 20 181 0.0 0.0 0.00 0.00 0.00 64 1007.8
20260506001806 20 181 0.0 0.0 0.00 0.00 0.00 64 1007.5
20260506001304 20 181 0.0 0.0 0.00 0.00 0.00 64 1007.6
20260506000801 20 181 0.0 0.0 0.00 0.00 0.00 63 1007.5
20260506000258 20 181 0.0 0.0 0.00 0.00 0.00 63 1007.3
20260505235755 21 185 0.0 0.0 0.00 0.00 0.00 62 1007.5
20260505235253 21 185 0.0 0.0 0.00 0.00 0.00 61 1007.3
20260505234749 21 181 0.0 0.0 0.00 0.00 0.00 60 1007.4
20260505234247 21 181 0.0 0.0 0.00 0.00 0.00 59 1007.4
20260505233743 21 185 0.0 0.0 0.00 0.00 0.00 58 1007.1
20260505233242 21 183 0.0 0.0 0.00 0.00 0.00 58 1007.2
20260505232739 21 184 0.0 0.0 0.00 0.00 0.00 57 1007.3
20260505232236 22 180 0.0 0.0 0.00 0.00 0.00 56 1007.3
20260505231732 22 181 0.0 0.0 0.00 0.00 0.00 55 1007.4
20260505231231 22 185 0.0 0.0 0.00 0.00 0.00 55 1007.4
20260505230729 22 199 0.0 0.0 0.00 0.00 0.00 54 1007.2
20260505230226 22 209 0.0 0.0 0.00 0.00 0.00 54 1007.3
20260505225722 22 184 0.0 1.6 0.00 0.00 0.00 54 1007.0
20260505225219 22 171 3.2 3.2 0.00 0.00 0.00 53 1007.2
20260505224714 23 177 0.0 0.0 0.00 0.00 0.00 51 1007.3
20260505224212 23 206 1.6 1.6 0.00 0.00 0.00 50 1007.6
20260505223710 23 205 0.0 0.0 0.00 0.00 0.00 48 1007.4
20260505223206 23 167 0.0 0.0 0.00 0.00 0.00 47 1007.5
20260505222702 23 167 0.0 0.0 0.00 0.00 0.00 49 1007.5
20260505222158 23 200 0.0 0.0 0.00 0.00 0.00 47 1007.2
20260505221655 23 171 0.0 0.0 0.00 0.00 0.00 47 1007.3
20260505221152 23 173 0.0 0.0 0.00 0.00 0.00 46 1007.1
20260505220649 23 170 0.0 0.0 0.00 0.00 0.00 46 1007.6
20260505220147 23 176 0.0 0.0 0.00 0.00 0.00 45 1007.3
20260505215644 24 269 3.2 6.4 0.00 0.00 0.00 45 1007.3
20260505215142 24 192 0.0 0.0 0.00 0.00 0.00 44 1007.3
20260505214640 24 245 0.0 0.0 0.00 0.00 0.00 44 1007.2
20260505214137 24 181 0.0 1.6 0.00 0.00 0.00 46 1007.1
20260505213634 25 187 0.0 0.0 0.00 0.00 0.00 45 1007.0
20260505213131 24 178 0.0 0.0 0.00 0.00 0.00 47 1007.0
20260505212627 24 269 3.2 4.8 0.00 0.00 0.00 46 1006.6
20260505212125 24 196 0.0 0.0 0.00 0.00 0.00 46 1006.4
20260505211621 24 200 0.0 0.0 0.00 0.00 0.00 46 1006.4
20260505211119 24 169 0.0 0.0 0.00 0.00 0.00 46 1006.4
20260505210615 23 197 0.0 0.0 0.00 0.00 0.00 47 1006.6
20260505210112 23 171 0.0 0.0 0.00 0.00 0.00 47 1006.6
20260505205609 23 210 0.0 0.0 0.00 0.00 0.00 46 1006.6
20260505205107 24 193 4.8 4.8 0.00 0.00 0.00 44 1006.5
20260505204604 24 193 1.6 1.6 0.00 0.00 0.00 45 1006.6
20260505204102 24 226 0.0 1.6 0.00 0.00 0.00 44 1006.6
20260505203558 25 194 0.0 1.6 0.00 0.00 0.00 42 1006.5
20260505203055 25 165 0.0 0.0 0.00 0.00 0.00 42 1006.5
20260505202551 25 192 0.0 1.6 0.00 0.00 0.00 41 1007.0
20260505202047 25 231 4.8 6.4 0.00 0.00 0.00 40 1006.5
20260505201544 25 318 8.0 12.9 0.00 0.00 0.00 38 1006.4
20260505201042 25 177 0.0 1.6 0.00 0.00 0.00 38 1006.3
20260505200539 25 173 0.0 0.0 0.00 0.00 0.00 38 1006.3
20260505200036 25 155 4.8 6.4 0.00 0.00 0.00 38 1006.2
20260505195532 26 174 0.0 0.0 0.00 0.00 0.00 37 1006.3
20260505195030 26 165 4.8 6.4 0.00 0.00 0.00 36 1006.2
20260505194527 26 132 6.4 9.7 0.00 0.00 0.00 36 1006.3
20260505194022 26 189 3.2 6.4 0.00 0.00 0.00 37 1006.3
20260505193520 26 171 0.0 0.0 0.00 0.00 0.00 37 1006.3
20260505193017 26 197 6.4 9.7 0.00 0.00 0.00 35 1006.2
20260505192516 26 253 1.6 4.8 0.00 0.00 0.00 36 1006.2
20260505192013 26 99 0.0 0.0 0.00 0.00 0.00 35 1006.3
20260505191511 26 256 0.0 1.6 0.00 0.00 0.00 36 1006.1
20260505191009 27 210 4.8 9.7 0.00 0.00 0.00 34 1006.2
20260505190503 27 227 0.0 1.6 0.00 0.00 0.00 37 1006.1
20260505185958 27 250 6.4 9.7 0.00 0.00 0.00 35 1006.0
20260505185456 27 158 0.0 0.0 0.00 0.00 0.00 38 1006.2
20260505184952 26 215 3.2 3.2 0.00 0.00 0.00 38 1006.1
20260505184449 26 169 0.0 0.0 0.00 0.00 0.00 39 1006.0
20260505183945 26 222 0.0 0.0 0.00 0.00 0.00 40 1006.3
20260505183443 26 254 0.0 1.6 0.00 0.00 0.00 40 1006.4
20260505182939 26 163 0.0 0.0 0.00 0.00 0.00 38 1006.1
20260505182436 26 269 6.4 9.7 0.00 0.00 0.00 38 1006.3
20260505181932 26 306 0.0 0.0 0.00 0.00 0.00 39 1006.4
20260505181430 26 172 0.0 0.0 0.00 0.00 0.00 38 1006.6
20260505180927 26 193 6.4 9.7 0.00 0.00 0.00 40 1006.4
20260505180423 26 292 0.0 0.0 0.00 0.00 0.00 38 1006.8
20260505175920 26 311 14.5 17.7 0.00 0.00 0.00 39 1006.9
20260505175416 26 336 9.7 12.9 0.00 0.00 0.00 38 1006.6
20260505174912 26 240 6.4 9.7 0.00 0.00 0.00 38 1006.8
20260505174410 26 247 9.7 11.3 0.00 0.00 0.00 41 1006.9
20260505173906 26 317 4.8 9.7 0.00 0.00 0.00 38 1006.8
20260505173402 26 307 4.8 6.4 0.00 0.00 0.00 39 1006.8
20260505172900 26 136 3.2 3.2 0.00 0.00 0.00 38 1007.1
20260505172357 25 195 6.4 6.4 0.00 0.00 0.00 41 1007.3
20260505171857 26 312 12.9 12.9 0.00 0.00 0.00 39 1007.2
20260505171354 25 161 0.0 0.0 0.00 0.00 0.00 43 1007.4
20260505170850 25 175 1.6 1.6 0.00 0.00 0.00 44 1007.1
20260505170348 25 243 8.0 9.7 0.00 0.00 0.00 42 1007.3
20260505165843 25 298 3.2 6.4 0.00 0.00 0.00 42 1007.2
20260505165339 25 200 0.0 0.0 0.00 0.00 0.00 43 1007.2
20260505164835 25 203 0.0 1.6 0.00 0.00 0.00 44 1007.5
20260505164331 25 186 3.2 9.7 0.00 0.00 0.00 43 1007.5
20260505163830 25 186 0.0 1.6 0.00 0.00 0.00 43 1007.2
20260505163328 25 216 0.0 1.6 0.00 0.00 0.00 43 1007.3
20260505162826 25 232 4.8 6.4 0.00 0.00 0.00 43 1007.5
20260505162322 25 154 0.0 0.0 0.00 0.00 0.00 47 1007.4
20260505161819 25 187 0.0 0.0 0.00 0.00 0.00 45 1007.8
20260505161316 25 237 4.8 6.4 0.00 0.00 0.00 46 1007.9
20260505160814 24 186 0.0 0.0 0.00 0.00 0.00 47 1008.0
20260505160312 25 236 6.4 6.4 0.00 0.00 0.00 45 1007.8
20260505153250 25 248 3.2 4.8 0.00 0.00 0.00 47 1008.1
20260505152747 25 166 0.0 0.0 0.00 0.00 0.00 47 1007.9
20260505152243 24 176 0.0 0.0 0.00 0.00 0.00 48 1008.0
20260505151738 25 158 4.8 9.7 0.00 0.00 0.00 47 1007.9
20260505151236 24 167 1.6 3.2 0.00 0.00 0.00 48 1008.1
20260505150732 25 228 6.4 12.9 0.00 0.00 0.00 46 1007.9
20260505150229 25 200 3.2 3.2 0.00 0.00 0.00 47 1007.9
20260505140154 20 178 0.0 0.0 0.00 0.00 0.00 66 1008.1
20260505130118 15 180 0.0 0.0 0.00 0.00 0.00 83 1008.7
20260505124607 13 179 0.0 0.0 0.00 0.00 0.00 86 1008.9
20260505124104 13 179 0.0 0.0 0.00 0.00 0.00 87 1008.8
20260505123600 13 179 0.0 0.0 0.00 0.00 0.00 89 1008.8
20260505123057 12 179 0.0 0.0 0.00 0.00 0.00 90 1008.8
20260505122553 12 179 0.0 0.0 0.00 0.00 0.00 90 1009.0
20260505122051 12 179 0.0 0.0 0.00 0.00 0.00 90 1009.0
20260505121547 12 179 0.0 0.0 0.00 0.00 0.00 91 1009.2
20260505121044 12 179 0.0 0.0 0.00 0.00 0.00 90 1009.2
20260505120540 12 179 0.0 0.0 0.00 0.00 0.00 90 1009.2
20260505120036 12 178 0.0 0.0 0.00 0.00 0.00 89 1009.2
20260505115531 12 179 0.0 0.0 0.00 0.00 0.00 89 1009.1
20260505115028 12 179 0.0 0.0 0.00 0.00 0.00 89 1009.3
20260505114525 12 179 0.0 0.0 0.00 0.00 0.00 89 1009.2
20260505114021 12 179 0.0 0.0 0.00 0.00 0.00 89 1009.2
20260505113518 12 180 0.0 0.0 0.00 0.00 0.00 90 1009.3
20260505113014 11 179 0.0 0.0 0.00 0.00 0.00 90 1008.8
20260505112510 11 179 0.0 0.0 0.00 0.00 0.00 91 1009.0
20260505112008 11 179 0.0 0.0 0.00 0.00 0.00 92 1008.6
20260505111502 11 179 0.0 0.0 0.00 0.00 0.00 92 1008.7
20260505110959 11 179 0.0 0.0 0.00 0.00 0.00 92 1008.9
20260505110455 11 179 0.0 0.0 0.00 0.00 0.00 92 1008.6
20260505101927 10 179 0.0 0.0 0.00 0.00 0.00 92 1008.5
20260505101421 10 178 0.0 0.0 0.00 0.00 0.00 92 1008.3
20260505100917 10 178 0.0 0.0 0.00 0.00 0.00 93 1008.2
20260505100414 10 184 0.0 0.0 0.00 0.00 0.00 93 1008.5
20260505095909 10 184 0.0 0.0 0.00 0.00 0.00 92 1008.7
20260505095407 10 185 0.0 0.0 0.00 0.00 0.00 91 1008.8
20260505094903 10 183 0.0 0.0 0.00 0.00 0.00 91 1008.7
20260505094400 10 183 0.0 0.0 0.00 0.00 0.00 91 1008.5
20260505093855 10 183 0.0 0.0 0.00 0.00 0.00 91 1008.4
20260505093353 10 183 0.0 0.0 0.00 0.00 0.00 91 1008.5
20260505092850 10 184 0.0 0.0 0.00 0.00 0.00 91 1008.3
20260505092348 10 181 0.0 0.0 0.00 0.00 0.00 91 1008.1
20260505091845 10 181 0.0 0.0 0.00 0.00 0.00 91 1008.1
20260505091343 10 182 0.0 0.0 0.00 0.00 0.00 90 1007.9
20260505090841 10 171 0.0 0.0 0.00 0.00 0.00 90 1007.6
20260505090339 10 174 0.0 0.0 0.00 0.00 0.00 90 1007.7
20260505085836 10 176 0.0 0.0 0.00 0.00 0.00 90 1008.0
20260505085334 10 164 0.0 0.0 0.00 0.00 0.00 89 1007.8
20260505084831 10 164 0.0 0.0 0.00 0.00 0.00 89 1007.7
20260505084330 10 166 0.0 0.0 0.00 0.00 0.00 89 1008.1
20260505083826 11 167 0.0 0.0 0.00 0.00 0.00 89 1007.9
20260505083324 11 147 0.0 0.0 0.00 0.00 0.00 88 1007.9
20260505082820 11 173 0.0 0.0 0.00 0.00 0.00 88 1007.9
20260505082317 11 174 0.0 0.0 0.00 0.00 0.00 88 1007.9
20260505081813 11 173 0.0 0.0 0.00 0.00 0.00 88 1008.0
20260505081310 11 173 0.0 0.0 0.00 0.00 0.00 87 1007.8
20260505080807 11 172 0.0 0.0 0.00 0.00 0.00 87 1007.8
20260505080303 11 172 0.0 0.0 0.00 0.00 0.00 86 1008.0
20260505075758 11 173 0.0 0.0 0.00 0.00 0.00 85 1007.9
20260505075256 11 159 0.0 0.0 0.00 0.00 0.00 85 1008.0
20260505074753 12 156 0.0 0.0 0.00 0.00 0.00 84 1007.7
20260505074250 12 155 0.0 0.0 0.00 0.00 0.00 83 1007.5
20260505073747 12 165 0.0 0.0 0.00 0.00 0.00 83 1007.9
20260505073245 12 168 0.0 0.0 0.00 0.00 0.00 82 1007.7
20260505072742 12 150 0.0 0.0 0.00 0.00 0.00 82 1007.6
20260505072238 12 167 0.0 0.0 0.00 0.00 0.00 83 1007.6
20260505071733 12 166 0.0 0.0 0.00 0.00 0.00 83 1007.7
20260505071230 12 159 0.0 0.0 0.00 0.00 0.00 82 1007.4
20260505070728 12 154 0.0 0.0 0.00 0.00 0.00 82 1007.5
20260505070224 13 138 0.0 0.0 0.00 0.00 0.00 79 1007.4
20260505065720 12 132 0.0 0.0 0.00 0.00 0.00 80 1007.4
20260505065217 12 163 0.0 0.0 0.00 0.00 0.00 82 1007.6
20260505064714 12 139 0.0 0.0 0.00 0.00 0.00 81 1008.1
20260505064212 12 154 0.0 0.0 0.00 0.00 0.00 81 1007.7
20260505063709 12 154 0.0 0.0 0.00 0.00 0.00 81 1007.9
20260505063205 12 154 0.0 0.0 0.00 0.00 0.00 80 1007.8
20260505062701 12 154 0.0 0.0 0.00 0.00 0.00 80 1007.7
20260505062200 12 153 0.0 0.0 0.00 0.00 0.00 79 1007.9
20260505061656 13 153 0.0 0.0 0.00 0.00 0.00 78 1007.8
20260505061154 13 153 0.0 0.0 0.00 0.00 0.00 78 1007.8
20260505060651 13 152 0.0 0.0 0.00 0.00 0.00 77 1007.8
20260505060148 13 174 0.0 0.0 0.00 0.00 0.00 76 1007.9
20260505055643 13 174 0.0 0.0 0.00 0.00 0.00 76 1008.0
20260505055140 13 174 0.0 0.0 0.00 0.00 0.00 75 1007.9
20260505054638 13 173 0.0 0.0 0.00 0.00 0.00 75 1007.8
20260505054135 13 162 0.0 0.0 0.00 0.00 0.00 74 1008.2
20260505053633 14 162 0.0 0.0 0.00 0.00 0.00 75 1008.0
20260505053129 14 163 0.0 0.0 0.00 0.00 0.00 73 1008.1
20260505052626 14 155 0.0 0.0 0.00 0.00 0.00 73 1008.2
20260505052124 14 168 0.0 0.0 0.00 0.00 0.00 72 1008.1
20260505051621 15 169 0.0 0.0 0.00 0.00 0.00 71 1007.9
20260505051119 15 157 0.0 0.0 0.00 0.00 0.00 70 1008.0
20260505050616 15 165 0.0 0.0 0.00 0.00 0.00 69 1007.9
20260505050114 15 171 0.0 0.0 0.00 0.00 0.00 69 1008.2
20260505041544 17 197 0.0 0.0 0.00 0.00 0.00 59 1008.1
20260505041041 17 165 0.0 0.0 0.00 0.00 0.00 59 1007.8
20260505040538 17 163 0.0 0.0 0.00 0.00 0.00 58 1007.8
20260505040035 17 160 0.0 0.0 0.00 0.00 0.00 57 1007.9
20260505035531 18 161 0.0 0.0 0.00 0.00 0.00 56 1007.8
20260505035028 17 165 0.0 0.0 0.00 0.00 0.00 52 1007.8
20260505034525 18 164 0.0 0.0 0.00 0.00 0.00 54 1007.8
20260505034022 18 158 0.0 0.0 0.00 0.00 0.00 52 1007.7
20260505033519 19 167 0.0 0.0 0.00 0.00 0.00 51 1007.8
20260505033017 20 172 0.0 0.0 0.00 0.00 0.00 49 1007.7
20260505032514 20 164 0.0 0.0 0.00 0.00 0.00 48 1007.5
20260505032010 20 172 0.0 0.0 0.00 0.00 0.00 48 1007.7
20260505031508 19 146 0.0 0.0 0.00 0.00 0.00 48 1007.6
20260505031004 19 162 0.0 0.0 0.00 0.00 0.00 50 1007.5
20260505030501 20 129 0.0 1.6 0.00 0.00 0.00 49 1007.7
20260505025955 20 163 0.0 0.0 0.00 0.00 0.00 47 1007.6
20260505025453 20 164 0.0 0.0 0.00 0.00 0.00 47 1007.4
20260505024952 20 168 0.0 0.0 0.00 0.00 0.00 47 1007.7
20260505024449 20 147 0.0 0.0 0.00 0.00 0.00 46 1007.4
20260505023946 20 181 0.0 0.0 0.00 0.00 0.00 45 1007.6
20260505023443 20 170 0.0 0.0 0.00 0.00 0.00 46 1007.5
20260505022940 20 241 0.0 0.0 0.00 0.00 0.00 45 1007.7
20260505022438 20 204 1.6 3.2 0.00 0.00 0.00 46 1007.7
20260505021935 19 175 0.0 0.0 0.00 0.00 0.00 46 1007.6
20260505021431 19 168 0.0 0.0 0.00 0.00 0.00 52 1007.6
20260505020927 19 154 0.0 0.0 0.00 0.00 0.00 51 1007.7
20260505020422 20 167 0.0 0.0 0.00 0.00 0.00 53 1007.7
20260505015919 20 168 0.0 0.0 0.00 0.00 0.00 48 1007.8
20260505015417 21 172 0.0 0.0 0.00 0.00 0.00 46 1007.8
20260505014914 21 214 3.2 3.2 0.00 0.00 0.00 44 1007.5
20260505014411 21 163 1.6 1.6 0.00 0.00 0.00 45 1007.6
20260505013908 20 3 0.0 0.0 0.00 0.00 0.00 44 1007.4
20260505013404 20 165 0.0 0.0 0.00 0.00 0.00 45 1007.5
20260505012903 20 170 0.0 0.0 0.00 0.00 0.00 47 1007.4
20260505012400 20 171 0.0 0.0 0.00 0.00 0.00 49 1007.3
20260505011856 20 112 0.0 0.0 0.00 0.00 0.00 47 1007.3
20260505011353 20 125 0.0 0.0 0.00 0.00 0.00 48 1007.6
20260505010849 20 128 0.0 0.0 0.00 0.00 0.00 45 1007.4
20260505010345 20 167 0.0 0.0 0.00 0.00 0.00 48 1007.2
20260505005842 20 154 0.0 0.0 0.00 0.00 0.00 45 1007.3
20260505005338 20 173 0.0 0.0 0.00 0.00 0.00 47 1007.1
20260505004836 20 144 0.0 0.0 0.00 0.00 0.00 46 1007.1
20260505004332 20 146 0.0 0.0 0.00 0.00 0.00 46 1007.2
20260505003830 21 149 0.0 0.0 0.00 0.00 0.00 44 1006.9
20260505003327 21 101 0.0 0.0 0.00 0.00 0.00 44 1007.0